Agadir Al Massira, Morocco

9:49 AM WEST on August 20, 2017 (GMT +0100)
Agadir Al Massira

Weather History for GMAD - October, 2012

Change the Weather History Date:

Thursday, October 18, 2012

  Actual Average Record
Temperature  
Mean Temperature 69 °F -  
Max Temperature 77 °F - - ()
Min Temperature 61 °F - - ()
Cooling Degree Days 4    
Growing Degree Days 19 (Base 50)    
Moisture  
Dew Point 61 °F    
Average Humidity 73    
Maximum Humidity 88    
Minimum Humidity 43    
Precipitation  
Precipitation 0.00 in - - ()
Sea Level Pressure  
Sea Level Pressure 29.82 in    
Wind  
Wind Speed 3 mph ()    
Max Wind Speed 14 mph    
Max Gust Speed 25 mph    
Visibility 5.7 miles    
Events      
T = Trace of Precipitation, MM = Missing Value Source: Averaged Metar Reports

Daily Weather History Graph

Daily Weather History Graph

Search for Another Location

Airport or City:

Trip Planner

Search our weather history database for the weather conditions in past years. The results will help you decide how hot, cold, wet, or windy it might be!

Date:

Astronomy

Oct. 18, 2012 Rise Set
Actual Time 6:42 AM WET 6:03 PM WET
Civil Twilight 6:17 AM WET 6:27 PM WET
Nautical Twilight 5:49 AM WET 6:55 PM WET
Astronomical Twilight 5:21 AM WET 7:23 PM WET
Moon 9:55 AM WET (10/18) 8:38 PM WET (10/18)
Length of Visible Light 12h 09m
Length of Day
11h 21m
Waxing Crescent, 13% of the Moon is Illuminated
Oct 18
Waxing Crescent
Oct 22
First Quarter
Oct 29
Full
Nov 7
Last Quarter
Nov 13
New

Hourly Weather History & Observations

Time (WET) Temp. Dew Point Humidity Pressure Visibility Wind Dir Wind Speed Gust Speed Precip Events Conditions
12:00 AM 67 °F 63 °F 81% 29.88 in 6 mi Calm Calm - -   Partly Cloudy
12:00 AM 68.0 °F 62.6 °F 83% 29.86 in 6.2 mi Calm Calm - N/A   Scattered Clouds
1:00 AM 68.0 °F 62.6 °F 83% 29.86 in 6.2 mi Calm Calm - N/A   Unknown
2:00 AM 68.0 °F 62.6 °F 83% 29.83 in 6.2 mi Calm Calm - N/A   Unknown
3:00 AM 68 °F 63 °F 78% 29.82 in 4 mi Calm Calm - -   Mostly Cloudy
3:00 AM 68.0 °F 62.6 °F 83% 29.83 in 3.7 mi Calm Calm - N/A   Mostly Cloudy
4:00 AM 68.0 °F 62.6 °F 83% 29.80 in 6.2 mi North 3.5 mph - N/A   Mostly Cloudy
5:00 AM 68.0 °F 62.6 °F 83% 29.80 in 6.2 mi Calm Calm - N/A   Unknown
6:00 AM 68 °F 62 °F 76% 29.83 in 4 mi Calm Calm - -   Mostly Cloudy
6:00 AM 68.0 °F 62.6 °F 83% 29.83 in 3.7 mi Calm Calm - N/A   Scattered Clouds
7:00 AM 68.0 °F 62.6 °F 83% 29.83 in 6.2 mi Calm Calm - N/A   Scattered Clouds
8:00 AM 68.0 °F 62.6 °F 83% 29.83 in 6.2 mi SW 3.5 mph - N/A   Unknown
8:24 AM 69 °F 62 °F 71% 29.85 in 5 mi SSW 5.8 mph - -   Mostly Cloudy
9:00 AM 69.8 °F 62.6 °F 78% 29.86 in 5.0 mi SSW 4.6 mph - N/A   Scattered Clouds
10:00 AM 69.8 °F 60.8 °F 73% 29.86 in 6.2 mi SW 4.6 mph - N/A   Unknown
11:00 AM 73.4 °F 59.0 °F 61% 29.86 in 6.2 mi WSW 5.8 mph - N/A   Scattered Clouds
12:00 PM 75.2 °F 59.0 °F 57% 29.83 in 6.2 mi SSW 3.5 mph - N/A   Unknown
1:00 PM 75.2 °F 57.2 °F 53% 29.83 in 6.2 mi West 3.5 mph - N/A   Scattered Clouds
2:00 PM 77.0 °F 59.0 °F 54% 29.77 in 6.2 mi West 13.8 mph - N/A   Scattered Clouds
3:00 PM 76 °F 58 °F 43% 29.77 in 6 mi West 11.5 mph - -  
3:00 PM 75.2 °F 57.2 °F 53% 29.77 in 6.2 mi West 11.5 mph - N/A   Unknown
4:00 PM 77.0 °F 57.2 °F 50% 29.77 in 6.2 mi West 10.4 mph - N/A   Scattered Clouds
5:00 PM 73.4 °F 59.0 °F 61% 29.77 in 6.2 mi West 12.7 mph - N/A   Scattered Clouds
6:00 PM 71.6 °F 62.6 °F 73% 29.77 in 6.2 mi West 10.4 mph - N/A   Scattered Clouds
7:00 PM 68.0 °F 60.8 °F 78% 29.77 in 5.0 mi West 13.8 mph 25.3 mph N/A   Scattered Clouds
8:00 PM 66.2 °F 59.0 °F 78% 29.77 in 5.0 mi West 5.8 mph - N/A   Scattered Clouds
9:00 PM 64 °F 60 °F 84% 29.81 in 6 mi West 5.8 mph - -  
9:00 PM 64.4 °F 60.8 °F 88% 29.80 in 6.2 mi West 5.8 mph - N/A   Scattered Clouds
10:00 PM 64.4 °F 59.0 °F 83% 29.80 in 6.2 mi SW 4.6 mph - N/A   Scattered Clouds
11:00 PM 64.4 °F 57.2 °F 77% 29.80 in 6.2 mi NE 5.8 mph - N/A   Scattered Clouds